Other Surface Observations
Issued by NWS Tucson, AZ

Home | Current Version | Previous Version | Text Only | Print | Product List | Glossary On
Versions: 1 2 3 4 5 6 7 8 9 10 11 12 13 14 15 16 17 18 19 20 21 22 23 24 25 26 27 28 29 30 31 32 33 34 35 36 37 38 39 40 41 42 43 44 45 46 47 48 49 50
000
SXUS55 KTWC 242015
OSOTWC

WEATHER ROUNDUP FOR SOUTHEAST ARIZONA
NATIONAL WEATHER SERVICE TUCSON AZ
115 PM MST SUN MAY 24 2015

AZZ504>506-514-242115-
LOCATION       SKY/WX    TMP DP  RH WIND       PRES   REMARKS
TUCSON         MOSUNNY   79  32  18 W7        29.92F
DAVIS-MONTHAN  PTSUNNY   77  35  21 VRB6      29.90F
CHILDRENS PARK N/A       76  34  22 NE2               PIMA CO DEQ
ALVERNON/22ND  N/A      N/A N/A N/A N/A               PIMA CO DEQ
CHERRY/GLENN   N/A      N/A N/A N/A N/A               PIMA CO DEQ
TANGERINE      N/A       76 N/A N/A W4                PIMA CO DEQ
CONTL RANCH    N/A       78  36  22 N4                PIMA CO DEQ
GRANT/1ST      N/A       77  35  22 NE1               PIMA CO DEQ
CRAYCROFT/22ND N/A      N/A N/A N/A N/A               PIMA CO DEQ
GOLFLINKS/KOLB N/A      N/A N/A N/A N/A               PIMA CO DEQ
AJO/12TH       N/A       77  35  22 S4                PIMA CO DEQ
SAGUARO EAST   N/A      N/A N/A N/A N/A               PIMA CO DEQ
FAIRGROUNDS    N/A       75 N/A N/A SW7               PIMA CO DEQ
SAGUARO        N/A       79  32  18 SW6G13            *SABINO CYN
SAN CARLOS     N/A       77  34  21 SW6G14            *SAN CARLOS
GREEN VALLEY   N/A       77  27  16 SW6               PIMA CO DEQ
HORSE CAMP CYN N/A       70  29  22 W10G22            *ARAVAIPA CYN
RINCON MTNS    N/A       60  28  30 SW3G16            *NR MANNING CAMP
$$

AZZ509>511-242115-
LOCATION       SKY/WX    TMP DP  RH WIND       PRES   REMARKS
SAFFORD        SUNNY     78  31  17 MISG      29.89F
STRAY HORSE    N/A       56  27  33 W11G21            *
TRAIL CABIN    N/A       66  28  24 SW6G15            *N OF GRANVILLE
BLACK HILLS    N/A       76  32  20 W6G16             *N OF FT THOMAS
DRY LAKE       N/A       60  30  32 S6G13             *NATANES MTNS
NOON CREEK     N/A       72  33  24 NE8G15            *PINALENO MTNS
COLUMBINE      N/A       49  21  33 SW9G16            *PINALENO MTNS
GUTHRIE        N/A       62  27  26 SW10G23           *SW OF GUTHRIE
$$

AZZ502-503-513-242115-
LOCATION       SKY/WX    TMP DP  RH WIND       PRES   REMARKS
NOGALES        SUNNY     76  23  14 SW10G18   29.96F
SELLS          N/A       77  34  21 NW8G15            *
SASABE         N/A       76  32  20 SW9G19            *ALTAR VLY
HOPKINS        N/A       64  29  27 W8G15             *SANTA RITA MTNS
CARR CYN       N/A       71  24  17 SW5G14            *W OF HEREFORD
$$

AZZ507-508-512-242115-
LOCATION       SKY/WX    TMP DP  RH WIND       PRES   REMARKS
SIERRA VISTA   MOSUNNY   73  16  11 W10       29.98F
DOUGLAS        SUNNY     76  25  15 S9G25     29.95F
EMPIRE MTNS    N/A       73  30  20 W4G20             *LAS CIENEGAS NCA
MULESHOE RANCH N/A       71  31  23 NW6G13            *PRESERVE
HEADQUARTERS   N/A       71  23  16 W4G19             *CHIRICAHUA MTNS
$$

.............................NOTES.............................
THIS IS AN AUTOMATED COLLECTIVE WITH MINIMAL QUALITY CONTROL.
PIMA CO DEQ SITES HAVE NONSTANDARD WIND SENSOR HEIGHTS.
PIMA CO DEQ SITES DO NOT REPORT WIND GUSTS.
* INDICATES WIND SENSORS LOCATED AT 20 FEET INSTEAD OF 33 FEET.
..............................KEY..............................
SKY/WX - SKY CONDITION/WEATHER
TMP    - TEMPERATURE IN FAHRENHEIT
DP     - DEWPOINT IN FAHRENHEIT
RH     - RELATIVE HUMIDITY IN PERCENT
WIND   - DIRECTION AND SPEED IN MILES PER HOUR (MPH)
VRB    - VARIABLE WIND DIRECTION
PRES   - MEAN SEA LEVEL PRESSURE IN INCHES OF MERCURY
         F - FALLING PRESSURE   R - RISING PRESSURE
         S - STEADY PRESSURE
VSB    - VISIBILITY IN MILES
HX     - HEAT INDEX IN FAHRENHEIT
WCI    - WIND CHILL INDEX IN FAHRENHEIT
N/A    - NOT AVAILABLE
AFB    - AIR FORCE BASE
         DAVIS-MONTHAN IS DAVIS-MONTHAN AIR FORCE BASE
CYN    - CANYON
MTNS   - MOUNTAINS
NCA    - NATIONAL CONSERVATION AREA
NR     - NEAR
VLY    - VALLEY
CONTL  - CONTINENTAL
PIMA CO DEQ - PIMA COUNTY DEPT OF ENVIRONMENTAL QUALITY



USA.gov is the U.S. government's official web portal to all federal, state and local government web resources and services.